星链-38046(STARLINK-38046)

导读

**STARLINK-38046(NORAD 69746)卫星摘要** 该卫星是美国SpaceX运营的星链(Starlink)低轨互联网星座组网卫星,2026年6月28日从美国加州范登堡空军基地(AFWTR)发射入轨,国际编号归属于2026年第147次发射任务序列,当前运行于近地轨道(LEO)。作为星链量产组网卫星,其设计寿命约5年,主要功能是为全球提供低时延、高带宽的卫星互联网接入服务,单星制造成本约50万-100万美元,可支持超过1Gbps的数据传输速率,服务地面偏远及通信基础设施薄弱区域的高速上网需求。

基本信息
目录编号:
69746
目录名称:
STARLINK-38046
国际标识:
2026-150H
轨道中心:
EARTH
卫星名称:
星链-38046
卫星全名:
星链-38046(STARLINK-38046)
卫星状态:
在轨 (已飞行64 天)
发射日期:
2026-07-02 UTC
国别 :
美国 (US)
星等 :
--
轨道信息
数据来源 国际轨道数据 AOE轨道数据
星历时间 2026-09-03T19:44:24+0800
19小时前
查看轨道信息
2026-08-30T22:00:00+0800
4天前
查看轨道信息
半长轴 6843.665km 6843.702km
偏心率 0.0002181 0.000226
轨道倾角 97.286° 97.282°
近地点辐角 79.707° 69.793°
升交点赤经 85.730° 81.878°
平近点角 280.442° 342.694°
近地点 464.035km 464.018km
远地点 467.021km 467.112km
周期 93.906分钟 93.907分钟
每日圈数 15.334502 15.334377
详细信息
固有亮度:
5
最大亮度:
2.5
卫星平台:
Starlink V1.0
覆盖范围:
全球
运营商:
太空探索技术公司
运营商所在国:
美国
制造商(研发单位):
太空探索技术公司
制造商所在国:
美国
使用方式:
暂无
卫星简介
Starlink 计划是 SpaceX 推出的全球卫星互联网项目,通过发射低轨道卫星,为全球尤其是偏远地区提供高速、低延迟的互联网服务。自 2019 年起,Starlink 已部署数千颗卫星,旨在缩小全球数字鸿沟,推动互联网普及。该项目还为军事、航空等行业提供通信支持,带来广泛经济效益。
2D轨道图
3D轨道图
轨道高度分析图
轨道倾角分析图
轨道综合分析图
查看轨道综合分析图
交会数据列表
事件ID 空间交会对象 最接近时刻(TCA) 交会距离 交会风险概率(CRP) 交会风险指数(CRI) 操作
CDM_260905-124104-284006-974621
2026-09-05T
12:41:12+0000
0.392 km
远距离
1.400065E-4 高风险 0.78
CDM_260906-003504-177206-974621
2026-09-06T
00:35:36+0000
2.414 km
极远距离
1.885177E-6 低风险 0.41
CDM_260906-111204-828906-974621
2026-09-06T
11:12:09+0000
2.437 km
极远距离
1.761388E-6 低风险 0.4
CDM_260905-230104-177206-974621
2026-09-05T
23:01:40+0000
2.590 km
极远距离
1.660842E-6 低风险 0.39
CDM_260905-193204-858306-974621
2026-09-05T
19:32:07+0000
2.450 km
极远距离
1.327237E-6 低风险 0.37
CDM_260903-093304-814206-974621
2026-09-03T
09:33:03+0000
2.743 km
极远距离
1.009261E-6 低风险 0.35
CDM_260905-034805-266006-974621
2026-09-05T
03:48:23+0000
2.818 km
极远距离
9.267764E-7 极低风险 0.34